Hourly Data Report for June 08, 2017

FISHER BRANCH (AUT)
MANITOBA

51°05'00.100" N
97°33'16.200" W
253.00 m
50309J6
71442
WSZ

Download Data

Hourly Data (June 2017)
Hourly Data Report for June 8, 2017
TIME
LST
Temp Definition
°C
Dew Point Definition
°C
Rel Hum Definition
%
Precip. Amount Definition
mm

Wind Dir Definition
10's deg

Wind Spd Definition
km/h
Visibility Definition
km
Stn Press Definition
kPa
Hmdx Definition


Wind Chill Definition


Weather Definition


00:00 10.4 8.1 86 0.0 28 7   98.61     LegendNANA
01:00 10.4 6.9 79 0.0 29 7   98.61     LegendNANA
02:00 11.5 7.8 78 0.0 29 11   98.61     LegendNANA
03:00 10.7 6.8 77 0.0 28 5   98.62     LegendNANA
04:00 8.5 6.8 89 0.0 29 6   98.64     LegendNANA
05:00 8.6 6.9 89 0.0 31 5   98.66     LegendNANA
06:00 12.7 9.0 78 0.0 36 3   98.69     LegendNANA
07:00 16.8 9.2 61 0.0 33 5   98.68     LegendNANA
08:00 20.0 10.2 53 0.0 30 7   98.66     LegendNANA
09:00 23.2 8.2 38 0.0 32 5   98.63     LegendNANA
10:00 24.4 7.8 35 0.0 36 11   98.62 25   LegendNANA
11:00 25.6 6.2 29 0.0 36 9   98.61 25   LegendNANA
12:00 26.2 6.4 28 0.0 2 9   98.58 26   LegendNANA
13:00 26.2 7.5 30 0.0 36 9   98.54 26   LegendNANA
14:00 25.2 8.4 34 0.0 34 10   98.53 26   LegendNANA
15:00 24.6 10.6 41 0.0 28 8   98.50 26   LegendNANA
16:00 24.9 8.9 36 0.0 34 9   98.43 26   LegendNANA
17:00 24.0 8.0 36 0.0 36 11   98.39     LegendNANA
18:00 24.5 7.2 33 0.0 3 13   98.35 25   LegendNANA
19:00 23.2 7.5 37 0.0 4 9   98.33     LegendNANA
20:00 20.6 7.4 43 0.0 3 7   98.32     LegendNANA
21:00 17.1 7.5 53 0.0 3 7   98.30     LegendNANA
22:00 15.6 7.1 57 0.0 2 6   98.28     LegendNANA
23:00 13.8 6.9 63 0.0 2 5   98.25     LegendNANA

Notes on Data Quality.

Legend

  • E = Estimated
  • M = Missing
  • NA = Not Available*
  • [empty] = Indicates an unobserved value
Date modified: